User: anonymous   Login
Location: Unspecified
(0.0000°N, 0.0000°E)
Time: 07:41:05
(UTC+00:00)
Language:

COSMOS 2416 - Orbit

View from above orbital plane
View from above orbital plane
View from above satellite
View from above satellite

Ground track
Ground track

The orbit data is extracted from the following two-line orbital elements,

1 28909U 05048B   18115.72463969 +.00000032 +00000-0 +13341-3 0  9997
2 28909 082.4705 051.0870 0006793 330.5285 029.5425 12.55171408565500
Epoch (UTC): 25 April 2018 17:23:28
Eccentricity: 0.0006793
inclination: 82.4705°
perigee height: 1437 km
apogee height: 1448 km
right ascension of ascending node: 51.0870°
argument of perigee: 330.5285°
revolutions per day: 12.55171408
mean anomaly at epoch: 29.5425°
orbit number at epoch: 56550

The dashed part of the orbit path shows where the satellite is in the earth's shadow,  

DLR